Volver al catálogo

THOR ABLESTAR DEB

ActivoLEO
NORAD 4028·DEBRIS·🇺🇸 United States

Lanzado Jun 29, 1961 desde Cape Canaveral Space Force Station

Loading…

Próximos Pases (próximas 24 horas)

TLE

ActualizadoSource: Space-Track

Época: Sep 14, 2026, 13:15 UTC

1 04028U 61015JQ  26257.55244422  .00000899  00000-0  18258-3 0  9990
2 04028  66.7488  93.2076 0099144 284.1061  74.9052 14.63260542386895

Sigue THOR ABLESTAR DEB en tiempo real con AllMySat

Download on the App Store